GFSWCAN_925_spd_078.txt.gz
Wind_Speed
40 43 47 48 48 46 41 38 39 43 46 48 52 55 53 50 51 43 33 43 28 9 8 22 5 11 15 15 12 12 12 17 6 8 5 6 6 9 9 14 11 9 6 6 6 4 11 3 5 15 6 7 6 10
43 47 49 48 36 32 32 37 37 40 42 46 48 51 54 51 53 50 15 41 41 10 2 4 27 26 18 16 11 11 18 14 9 9 7 4 6 6 10 8 12 8 10 5 6 5 4 4 7 7 5 5 7 5
45 45 41 24 26 31 28 33 33 37 37 45 47 49 52 50 53 45 23 39 29 6 1 4 10 13 6 12 16 7 10 17 16 8 5 5 5 7 4 9 12 12 18 9 7 9 11 7 13 10 6 6 3 2
39 26 15 20 27 41 49 48 35 34 33 43 46 48 48 50 49 45 30 38 17 4 4 7 6 12 7 3 4 8 8 4 5 8 10 5 4 8 8 8 10 7 6 10 10 9 12 11 16 12 4 3 3 4
23 16 15 23 36 18 10 34 35 31 38 44 47 47 48 48 45 36 36 36 26 4 5 3 14 17 11 7 6 11 9 7 2 4 5 7 5 5 5 9 10 9 12 6 2 5 5 6 7 1 4 10 14 6
24 13 13 24 20 26 35 36 33 41 41 47 47 45 44 44 47 36 4 29 20 14 3 5 1 9 15 13 9 10 11 7 2 3 5 6 11 8 2 4 8 10 9 7 7 2 3 5 5 8 5 7 6 4
23 20 16 25 34 30 34 35 39 46 46 46 44 43 56 47 37 8 5 17 23 8 2 3 2 2 14 12 9 6 8 4 4 4 4 6 8 5 2 6 10 11 11 12 10 8 2 2 5 6 6 7 6 6
30 25 24 28 37 43 46 51 52 48 52 56 57 52 43 36 29 12 32 36 22 5 1 3 2 2 13 7 6 6 4 2 4 3 4 6 3 4 6 11 15 16 15 9 5 4 4 7 5 6 5 4 7 7
36 38 29 32 39 41 45 51 60 62 55 57 54 43 35 15 4 8 31 14 10 6 4 2 3 2 5 4 4 5 4 2 1 3 3 4 5 7 8 13 13 14 17 17 10 7 8 4 7 5 5 7 9 8
38 45 48 47 45 51 56 63 55 54 54 42 27 7 3 6 32 26 9 3 2 2 3 3 3 3 3 1 2 5 5 5 4 5 2 3 5 12 8 3 8 4 8 5 10 6 5 6 6 5 8 8 8 10
38 42 47 51 51 52 50 48 43 36 29 8 3 4 28 16 4 2 3 3 3 3 4 4 6 5 2 2 1 4 4 3 2 4 5 5 5 3 6 8 6 10 11 10 12 9 8 9 9 12 15 17 16 17
36 40 45 45 40 33 28 23 14 10 3 10 18 17 6 3 2 2 4 3 4 6 6 6 5 4 4 3 5 3 3 2 6 9 5 3 4 7 7 8 10 12 13 15 15 16 17 18 16 16 15 15 19 23
33 37 37 26 26 32 25 24 20 23 21 12 5 4 2 1 3 5 6 4 3 5 4 4 4 4 3 4 3 2 5 4 4 4 3 3 6 8 10 11 15 17 17 18 18 20 23 20 24 21 16 24 27 27
28 28 19 16 23 28 18 18 16 12 7 4 3 4 1 2 1 3 4 3 3 2 6 5 2 2 2 4 2 4 2 2 3 5 3 2 6 8 9 10 12 15 15 16 16 16 17 19 21 26 27 27 28 25
20 16 9 10 13 16 19 15 16 10 4 4 3 4 4 3 3 4 3 2 5 4 2 2 3 3 3 3 2 2 4 4 4 4 3 5 8 9 10 10 12 13 13 14 13 15 17 24 24 26 29 29 30 28
19 15 10 9 8 11 12 12 10 9 3 3 6 3 5 2 4 4 6 3 4 4 2 1 1 2 2 0 1 5 3 5 3 4 6 8 10 10 11 12 13 13 14 15 20 23 24 25 25 27 30 29 27 26
8 4 4 5 3 8 7 2 4 5 4 4 4 6 6 3 7 4 4 5 5 3 1 1 3 4 1 3 3 5 4 5 7 7 7 10 12 12 13 14 14 18 18 22 24 25 25 26 27 27 21 24 25 25
5 6 7 6 3 3 4 8 3 4 6 4 4 6 7 6 6 5 6 7 6 3 3 4 4 7 6 5 3 3 6 7 7 8 8 10 12 13 16 16 21 24 24 24 24 25 24 24 22 20 23 22 22 21
9 7 9 12 6 4 3 4 4 4 5 3 5 4 3 3 6 7 7 8 5 5 3 3 6 5 4 3 6 7 7 7 9 10 11 14 18 18 21 24 25 25 25 25 24 22 24 24 21 20 19 18 17 17
6 10 12 13 7 3 4 3 3 4 3 3 3 6 3 4 5 7 9 8 8 4 6 5 5 3 4 5 7 8 7 8 9 11 11 10 18 21 21 20 20 23 24 24 24 23 23 23 23 23 22 20 17 17
6 5 12 10 7 9 3 2 3 3 4 3 2 3 4 7 9 9 8 8 8 4 4 5 6 7 8 12 12 7 7 9 9 9 11 10 15 19 19 21 22 22 20 19 18 20 20 19 18 18 18 17 17 17
3 6 4 6 3 3 3 4 2 2 2 3 2 2 3 4 5 6 6 8 5 6 4 5 7 6 9 12 10 20 23 24 23 21 20 20 10 9 13 18 19 17 19 18 18 17 18 17 16 16 17 17 16 17
4 5 5 6 4 4 3 1 2 4 3 3 2 3 3 3 4 3 4 4 4 5 6 7 11 15 14 20 21 24 23 22 15 18 19 20 21 21 20 20 19 18 16 18 18 18 17 15 16 14 13 13 14 14
7 5 5 4 6 3 1 4 3 3 3 3 3 4 4 3 3 4 4 3 5 7 8 6 9 8 11 16 10 14 17 19 20 20 19 18 17 19 20 20 20 19 18 17 16 16 15 14 13 12 12 12 11 11
5 8 6 7 5 4 4 4 6 4 5 6 3 4 3 2 3 4 3 3 6 7 7 11 11 7 9 9 12 17 17 15 16 12 18 19 19 19 19 19 19 17 14 15 14 14 13 13 13 12 10 10 10 11
7 9 7 8 5 5 6 4 5 7 4 3 5 2 3 3 4 5 3 5 5 7 6 6 6 8 9 14 9 13 15 16 19 19 20 16 14 14 13 11 12 14 13 11 12 12 11 10 10 10 12 11 11 10
6 7 5 5 4 4 4 5 5 5 6 6 4 5 3 4 4 3 4 8 5 11 13 14 14 14 12 15 17 18 19 19 19 19 17 20 22 20 16 14 14 11 9 10 10 9 9 9 9 9 10 11 9 9
6 7 6 7 6 7 4 4 5 6 5 5 3 6 4 6 4 3 4 9 10 12 15 17 17 16 17 17 16 16 16 18 21 21 22 22 20 18 17 16 15 12 11 10 9 9 9 9 9 8 9 8 6 5
5 4 4 6 5 6 7 5 5 4 5 4 2 3 3 3 7 9 9 9 9 12 14 14 14 15 17 17 17 16 14 7 9 9 10 7 10 11 9 9 9 8 8 9 10 10 9 8 8 7 6 5 3 3
5 4 4 7 5 6 5 4 6 5 6 7 6 9 9 9 14 13 13 12 11 11 12 13 13 12 12 12 13 14 15 15 17 8 7 7 8 7 7 7 7 7 6 6 6 7 6 4 5 5 3 3 3 3
3 3 4 5 4 6 6 9 12 12 8 8 7 8 7 4 7 12 11 9 9 10 12 12 13 12 11 10 8 9 10 11 14 14 13 11 8 7 6 6 6 5 5 5 5 4 3 1 1 1 2 2 3 4
4 4 3 4 4 3 4 2 2 4 3 5 5 5 4 3 3 3 6 6 8 10 11 11 11 11 10 10 12 14 13 10 9 9 9 8 7 6 5 5 5 4 4 3 3 2 2 2 2 2 3 3 4 5
6 6 6 5 4 4 1 2 2 3 2 3 3 3 4 4 4 3 2 9 8 9 10 10 9 9 10 9 9 8 7 8 8 8 8 7 5 6 5 2 3 2 2 1 1 1 2 2 3 3 4 4 6 7

GFSWCAN_925_spd_081.txt.gz
Wind_Speed
40 40 42 44 45 47 49 49 49 49 49 50 50 49 50 51 50 44 36 32 26 5 4 18 10 5 2 9 7 4 2 3 2 3 5 5 4 7 6 6 7 5 6 2 4 4 5 8 3 4 4 7 5 3
38 41 45 48 50 53 54 54 53 51 49 49 52 53 52 51 50 48 19 37 35 6 3 4 18 23 20 8 3 3 6 3 3 3 3 3 3 2 6 3 6 5 7 6 10 6 7 3 2 5 6 6 3 3
41 43 47 44 36 34 32 35 36 39 41 41 41 49 53 52 51 51 32 31 28 4 1 3 8 36 27 22 20 5 3 6 5 5 3 5 4 4 3 6 2 4 5 2 3 7 11 5 5 5 7 10 7 5
38 40 40 29 30 36 37 36 34 33 36 38 39 40 44 53 53 50 27 31 30 3 2 6 10 12 23 19 24 8 6 3 4 3 2 3 2 3 4 4 4 6 11 10 6 8 4 8 9 7 11 13 8 3
32 27 21 24 21 26 28 38 44 35 36 33 37 37 42 50 50 45 29 32 33 4 4 6 4 17 25 16 4 1 4 3 2 2 2 3 3 3 3 1 4 6 6 6 5 8 7 5 2 7 16 11 9 7
18 18 15 12 16 20 14 25 45 36 29 33 35 39 41 48 51 30 5 35 42 11 1 3 1 6 16 14 7 1 1 2 3 3 2 3 7 4 3 4 5 13 10 4 3 2 3 7 7 5 7 3 7 6
15 20 15 15 19 19 26 33 37 32 29 32 41 41 47 49 42 8 5 27 41 18 2 3 2 2 1 5 3 2 1 2 3 2 3 0 4 4 2 3 4 5 5 5 4 5 5 2 5 7 8 7 8 10
18 25 23 20 25 31 33 35 37 39 41 41 45 47 52 42 21 8 34 46 29 6 3 3 2 3 6 3 2 4 2 2 1 3 1 3 4 5 4 6 8 10 8 3 3 6 7 8 8 7 7 9 12 12
24 29 35 39 42 40 38 44 49 44 44 51 54 51 37 10 3 10 36 25 12 5 5 3 4 4 3 2 1 2 3 1 3 3 3 4 5 4 7 5 6 7 6 7 4 8 8 11 9 8 11 10 13 12
34 37 42 44 48 52 57 58 55 51 47 38 24 6 3 8 37 23 8 3 5 3 3 2 3 3 3 2 0 1 2 3 3 5 5 4 3 9 2 6 6 5 7 5 12 7 10 9 12 14 15 15 15 15
45 43 42 44 39 33 26 28 31 29 24 8 4 4 20 13 5 3 3 3 1 1 2 3 3 4 2 3 3 1 3 3 4 4 6 3 3 3 6 12 11 12 17 16 17 16 13 15 13 15 15 16 16 18
46 38 33 30 28 29 27 24 13 9 8 12 18 10 3 2 3 4 3 2 2 5 4 5 3 4 2 2 3 2 3 3 6 5 4 4 2 7 13 15 16 16 17 20 19 19 18 18 15 17 16 16 21 25
32 35 32 27 31 30 27 28 34 39 34 10 4 4 2 3 4 4 5 2 3 2 3 3 3 3 2 1 2 3 6 6 1 3 4 2 5 8 9 10 15 15 17 19 19 20 24 22 25 23 16 23 27 27
21 26 28 24 24 19 19 9 5 4 5 3 3 5 3 2 4 3 3 2 2 3 4 4 3 3 2 4 3 4 3 1 2 3 3 2 6 8 8 9 12 15 15 18 17 17 18 19 21 25 25 25 28 25
10 15 20 22 22 18 13 18 14 9 5 4 4 5 5 2 5 5 4 3 5 4 2 3 2 2 2 3 3 2 2 3 2 3 2 5 7 8 8 10 12 14 13 14 15 17 18 24 25 25 26 27 30 29
9 8 18 17 19 19 17 16 17 7 4 4 6 4 5 3 6 5 6 4 4 5 3 0 2 2 2 1 2 4 2 4 2 3 5 8 10 9 10 11 12 13 14 15 21 23 25 24 25 27 29 28 28 27
10 8 16 15 14 16 18 7 7 6 4 4 3 4 4 4 4 2 2 3 3 3 1 1 4 4 3 3 3 4 3 3 5 6 6 10 11 12 12 13 13 19 20 24 25 26 27 28 30 29 22 25 28 28
7 9 15 16 9 7 7 8 4 4 5 3 3 2 5 2 3 3 5 5 4 3 2 4 4 6 4 4 3 2 4 6 6 8 9 11 11 12 16 15 21 24 25 26 26 26 26 25 23 21 25 25 26 25
9 10 13 11 7 4 4 5 5 4 4 2 2 2 2 3 6 7 7 7 5 5 3 3 5 3 3 3 6 6 5 5 8 9 11 14 19 18 22 25 25 24 24 23 22 20 22 23 21 20 21 21 21 21
6 9 13 10 5 3 4 2 3 4 3 3 2 5 4 4 5 5 8 7 6 3 5 4 4 4 3 5 7 8 7 8 9 11 11 10 18 21 20 20 19 23 24 24 24 24 24 24 24 24 24 23 20 20
5 12 14 8 6 9 3 2 3 2 3 3 2 2 4 5 9 8 6 7 7 4 4 4 4 6 9 8 12 14 9 9 9 9 10 10 15 19 20 21 22 22 20 19 18 20 21 19 19 22 22 23 27 27
5 10 6 8 4 4 3 5 3 2 2 2 2 2 3 3 3 5 6 8 4 4 3 4 7 7 11 12 11 20 23 25 24 23 22 20 9 8 13 17 19 17 18 18 19 18 18 19 23 25 28 27 24 24
3 3 4 6 4 4 3 3 1 2 2 2 2 3 3 2 3 2 4 5 3 5 9 9 13 18 14 21 25 27 25 24 16 18 20 20 21 21 21 20 19 18 17 19 20 20 22 23 22 21 22 23 24 24
5 5 5 4 7 3 1 3 2 2 2 2 3 4 4 3 2 4 4 3 5 7 6 9 10 7 10 16 10 13 18 21 22 21 18 19 17 19 21 21 21 20 20 20 20 22 23 21 20 22 22 22 21 22
6 9 5 7 5 5 5 4 5 4 4 6 4 4 3 2 3 3 3 2 6 6 6 10 10 6 8 8 11 17 19 18 17 11 17 19 21 21 21 21 20 19 19 21 21 21 19 16 18 21 20 20 19 18
8 7 6 8 5 5 5 4 5 6 5 3 4 2 3 3 5 4 3 3 4 6 5 6 5 7 8 13 8 12 16 18 19 18 19 14 14 15 14 11 12 17 16 16 18 19 18 17 19 18 17 16 15 15
7 7 5 5 3 3 3 4 5 4 5 6 4 5 3 4 4 3 2 6 3 11 15 16 14 13 10 13 17 19 21 21 21 18 19 24 23 21 19 15 13 14 16 18 16 15 16 16 18 17 15 13 10 8
4 5 5 7 5 7 4 4 5 5 4 5 3 6 3 4 3 2 2 8 12 14 17 18 17 16 16 16 18 19 20 23 24 25 27 26 24 22 21 19 15 11 12 13 14 15 14 12 14 13 10 11 9 8
4 2 3 6 5 5 6 4 4 3 4 3 3 3 3 3 4 4 7 11 12 12 12 12 14 17 19 20 20 19 12 6 8 10 11 6 8 14 12 15 12 12 13 13 11 9 9 9 11 12 9 7 5 4
3 2 4 4 5 5 3 4 2 2 3 5 4 7 5 4 15 17 17 15 13 12 13 13 13 13 11 12 13 18 19 18 14 12 7 6 9 11 10 10 10 11 9 9 11 10 7 8 9 8 5 3 3 5
2 3 4 4 3 1 1 3 11 9 5 4 3 4 3 3 6 17 16 10 13 13 15 14 17 15 14 12 9 10 12 16 17 16 16 14 10 9 8 9 9 6 7 6 5 6 7 6 5 4 3 3 3 1
3 3 4 4 1 2 2 2 2 2 2 2 1 2 2 2 3 4 10 11 12 13 13 13 13 13 13 15 15 16 14 11 11 12 12 11 10 9 9 7 4 5 7 6 5 5 4 4 5 2 2 2 3 5
3 3 3 4 2 3 1 1 2 2 2 2 2 1 2 3 3 2 6 13 13 12 12 12 12 11 10 9 9 8 8 10 10 8 7 6 7 7 7 5 4 5 5 5 4 3 2 1 1 2 1 3 4 7

GFSWCAN_925_spd_084.txt.gz
Wind_Speed
39 39 39 39 40 41 42 43 44 44 45 45 44 43 43 44 42 40 22 32 14 2 3 10 20 10 6 11 10 3 2 2 3 5 5 4 3 6 5 5 9 3 4 3 2 3 6 4 6 6 5 4 2 4
36 37 39 41 43 46 47 49 49 48 48 47 46 46 46 45 46 44 15 30 28 3 3 9 28 31 24 12 6 6 4 4 5 3 1 3 4 1 5 4 10 5 7 5 9 7 9 4 5 4 2 4 2 3
38 40 42 44 48 49 49 50 50 50 52 53 52 49 47 46 46 49 26 30 22 4 4 8 9 33 27 22 13 4 1 4 3 4 4 3 5 4 4 6 3 4 6 4 3 6 9 9 5 5 6 5 3 3
39 40 40 35 35 35 35 36 36 35 35 47 55 51 51 49 46 48 24 30 27 4 3 6 24 24 27 24 19 11 2 6 3 1 3 3 3 3 5 4 5 7 6 6 4 7 6 4 9 8 9 6 5 1
34 28 28 27 24 26 31 35 38 38 35 35 49 48 46 50 49 44 27 29 34 8 7 4 7 11 29 25 10 3 4 4 2 1 2 3 3 2 3 0 9 4 5 4 5 9 4 8 8 8 6 5 4 6
20 20 17 17 17 19 22 20 33 36 30 30 36 39 42 52 52 32 4 25 38 35 3 4 2 8 14 20 13 7 8 3 2 3 2 2 3 3 3 3 6 6 5 6 5 4 5 4 2 4 6 4 6 7
13 11 12 14 16 21 26 30 38 36 31 32 35 37 38 52 43 9 5 12 44 28 1 3 2 3 14 9 4 4 2 3 3 3 2 3 1 2 3 7 12 10 7 5 5 5 2 3 2 3 8 10 15 15
17 16 17 18 19 21 28 31 29 33 32 30 34 34 39 49 26 6 6 25 46 11 2 1 3 3 3 3 3 3 2 2 1 3 1 3 1 3 5 7 11 15 17 8 5 1 6 8 7 8 7 11 17 14
29 26 30 27 31 27 25 23 30 35 36 37 38 42 36 11 4 7 15 36 24 6 3 1 4 3 1 2 3 2 3 1 1 2 3 4 3 6 5 3 9 10 15 5 6 8 9 11 11 10 13 14 17 14
38 40 39 42 34 37 41 41 42 53 54 45 31 5 3 6 51 30 6 3 2 2 1 2 1 4 3 1 2 3 2 2 2 5 2 3 4 6 5 8 13 11 8 8 10 6 8 9 11 13 15 13 14 14
36 36 36 37 39 40 44 47 45 42 27 4 3 3 14 24 7 2 3 2 3 1 1 2 3 5 1 4 3 0 2 1 3 4 7 4 3 1 5 4 9 9 10 12 13 15 14 13 13 15 14 14 14 18
36 34 30 28 26 25 22 19 16 9 10 11 14 9 5 3 2 4 2 1 2 4 2 4 3 3 1 3 3 2 3 3 6 3 4 4 3 6 10 10 5 7 14 16 17 20 18 18 15 16 15 15 19 25
31 33 27 26 26 28 28 37 37 24 7 5 4 4 3 3 7 5 3 1 1 1 3 3 4 3 2 2 3 2 4 6 1 3 2 2 5 6 8 8 11 12 18 16 18 20 24 21 23 22 17 24 26 26
23 26 27 21 17 13 11 4 3 1 6 4 4 5 4 4 4 3 3 2 2 3 2 4 4 3 2 2 2 4 5 2 5 5 4 3 6 5 5 10 10 13 14 16 14 19 19 18 20 25 25 26 27 25
14 21 27 23 16 7 9 9 8 10 5 4 4 5 4 3 3 3 3 2 5 4 1 3 3 2 1 2 4 4 4 2 0 2 2 3 6 8 10 11 11 12 12 13 13 16 17 24 24 26 27 29 31 30
7 7 26 20 16 14 6 11 10 5 4 4 7 4 3 3 5 4 6 3 4 4 2 2 2 3 4 1 2 4 3 2 1 2 3 4 6 9 11 12 12 12 14 13 19 23 26 25 25 28 30 29 28 29
13 9 21 17 12 18 10 5 6 6 4 5 4 4 3 2 2 3 3 4 4 3 2 2 3 3 3 3 3 3 2 2 3 4 4 8 9 10 12 13 14 16 16 21 24 27 28 29 31 31 22 26 29 29
7 15 17 15 9 7 7 9 4 4 7 4 4 2 6 5 5 4 6 6 3 2 2 3 3 5 3 3 2 2 4 6 6 6 7 9 11 12 14 15 19 23 22 23 25 26 27 27 25 22 26 27 29 27
14 15 15 11 10 6 4 5 6 4 4 2 2 2 3 3 5 6 6 6 5 5 3 3 4 3 3 2 4 4 4 6 8 9 10 12 16 16 19 23 24 24 23 22 21 20 23 24 22 22 22 22 22 21
9 13 14 13 6 4 4 3 5 4 3 3 3 6 3 3 5 4 7 7 6 3 5 4 3 3 2 5 6 7 6 7 9 11 9 9 17 21 20 20 20 24 24 25 25 25 24 24 22 21 21 22 22 20
9 13 15 9 7 10 3 2 4 3 4 3 4 2 4 6 11 11 9 6 6 4 3 4 5 6 10 9 14 14 8 9 8 8 9 10 15 19 20 21 22 20 19 18 17 20 21 18 19 22 24 23 24 25
7 9 5 8 4 3 3 4 3 2 3 3 2 3 3 2 3 5 6 8 4 4 4 5 7 6 10 11 10 20 22 25 23 21 20 20 9 9 11 16 18 16 17 17 18 18 18 19 22 25 26 25 27 27
5 7 5 9 4 5 3 1 3 3 3 2 2 3 3 3 2 3 4 5 4 5 9 8 12 18 14 20 22 23 22 22 13 16 18 19 20 20 20 19 18 18 17 17 19 20 20 23 26 27 27 27 27 26
7 6 6 5 7 3 2 4 3 3 3 3 3 3 3 3 2 3 3 3 5 8 8 9 10 6 9 15 10 11 16 20 21 20 17 18 15 17 19 19 19 19 19 20 22 23 24 24 24 25 24 25 23 24
6 9 5 7 5 5 6 4 5 4 4 5 3 3 3 3 3 3 3 4 6 6 6 9 11 7 7 7 10 16 19 16 16 10 18 18 20 20 19 19 18 17 21 25 22 25 25 24 24 23 23 22 22 21
8 6 6 6 5 4 4 4 5 6 4 4 4 3 3 3 4 4 2 3 3 4 5 5 4 6 8 12 6 10 14 17 20 18 16 14 13 14 13 10 11 12 14 19 22 23 24 23 23 22 20 18 19 19
6 5 3 5 4 3 4 4 4 4 5 5 3 5 3 4 3 2 2 4 2 6 10 11 12 12 9 12 16 18 19 21 20 17 17 19 17 16 16 13 10 11 15 15 16 19 21 20 20 19 19 17 14 12
3 4 5 6 5 5 4 4 5 5 3 5 3 6 3 3 2 2 2 6 12 14 16 18 17 17 17 16 17 19 21 24 25 25 27 26 22 19 18 17 16 15 14 13 13 14 16 16 16 15 14 14 12 8
3 2 4 7 5 5 6 4 3 3 4 2 3 2 2 3 4 3 6 11 12 13 13 14 15 17 18 18 16 13 9 6 9 9 9 5 7 13 11 15 14 12 12 14 13 11 11 12 12 12 11 10 8 6
3 2 4 4 5 5 3 2 2 3 3 3 4 5 3 4 13 17 17 15 13 12 13 14 12 14 11 12 12 18 16 11 8 10 5 5 8 12 11 11 12 12 13 15 16 14 13 13 11 10 9 8 7 5
2 4 4 4 3 1 2 2 11 12 4 5 4 4 2 2 8 21 17 11 13 14 15 14 14 12 11 10 10 10 11 13 14 13 16 16 13 11 10 9 8 7 8 8 7 9 9 10 9 7 5 5 4 2
3 3 4 4 0 3 2 1 2 3 0 2 1 2 3 3 3 7 12 6 11 12 11 11 12 11 10 10 10 12 14 13 11 11 11 11 11 11 9 7 6 6 6 6 7 8 8 8 7 5 4 4 1 2
3 4 4 4 3 1 3 3 2 1 3 2 2 2 1 3 2 1 8 7 7 11 13 12 11 10 9 9 10 11 10 10 8 7 7 7 6 5 4 4 4 6 6 6 4 5 4 3 3 2 2 1 2 4

GFSWCAN_925_spd_087.txt.gz
Wind_Speed
39 40 42 41 38 36 37 39 39 38 37 36 35 35 34 35 38 44 31 35 25 5 4 11 15 9 9 11 5 4 2 0 3 5 4 4 3 4 6 4 4 4 4 2 3 2 6 5 2 2 5 6 5 4
40 41 38 37 38 38 39 39 40 40 40 39 39 39 38 36 36 37 9 26 30 3 0 8 14 19 21 20 10 4 4 3 5 3 2 2 2 1 4 5 5 3 6 6 9 6 6 5 3 3 4 1 2 5
39 37 40 41 42 43 45 45 47 46 45 44 42 42 42 42 39 41 20 28 19 3 1 3 5 15 30 25 20 7 4 6 3 3 3 3 4 5 4 5 10 5 5 3 2 9 16 10 6 4 8 5 6 4
37 41 41 42 42 40 39 40 42 45 50 50 48 45 44 43 44 43 27 30 24 3 2 4 20 20 21 22 22 21 9 4 1 2 3 3 2 3 4 5 5 6 6 7 6 7 7 12 7 8 9 7 4 9
37 36 30 31 28 29 32 35 37 39 43 47 47 51 47 45 42 40 32 25 31 8 4 3 4 17 24 26 23 17 7 5 3 3 2 4 2 1 2 2 4 5 6 4 6 9 4 7 6 6 10 8 9 7
23 24 19 19 19 20 27 31 37 39 35 40 41 48 50 49 42 27 2 25 32 24 2 2 4 7 15 24 20 12 5 5 3 2 3 4 4 3 2 4 5 11 6 3 4 5 4 9 5 3 4 8 3 4
13 12 11 8 8 13 14 10 13 40 37 39 38 35 52 48 39 9 4 12 32 19 2 2 4 2 15 13 7 3 2 3 3 2 4 3 2 4 2 4 6 11 11 10 10 7 7 4 3 6 14 11 14 18
10 10 9 8 10 14 19 25 29 29 28 34 38 43 45 47 29 5 2 28 41 9 2 3 4 3 1 3 4 3 2 1 4 4 2 3 0 2 5 5 12 15 12 11 11 8 7 4 6 8 12 13 16 15
16 20 15 14 12 14 19 24 32 35 36 43 48 47 38 16 4 5 19 38 19 5 4 3 3 3 3 2 3 2 3 2 1 2 2 4 3 5 6 7 3 1 1 6 7 4 8 9 8 8 10 17 14 15
35 35 26 26 22 28 25 29 37 40 47 45 29 4 4 12 47 38 6 3 2 1 1 2 0 2 2 2 3 3 1 3 3 4 2 3 4 5 6 7 5 1 3 6 5 4 5 7 7 10 11 13 13 16
31 31 32 35 36 37 42 44 40 29 18 5 2 4 35 31 9 3 3 3 3 3 3 1 4 3 0 3 2 1 2 2 3 4 5 3 3 3 2 5 4 4 6 6 5 4 9 12 13 14 13 14 14 16
27 32 27 23 28 34 34 13 12 13 12 12 19 18 7 3 3 4 2 2 3 5 3 4 3 3 1 2 3 1 3 2 5 3 3 4 2 5 6 6 6 5 11 14 13 12 14 17 13 16 14 15 20 24
21 25 31 30 25 21 18 16 19 15 11 8 5 4 2 1 3 4 4 2 1 1 3 4 4 3 2 2 3 3 4 5 2 3 4 2 3 6 7 6 8 9 12 20 17 15 19 18 21 22 18 23 27 27
21 18 21 17 13 13 9 14 8 3 4 3 4 5 3 3 4 3 3 2 2 2 3 5 3 2 2 2 3 4 4 1 3 4 4 2 6 6 7 5 6 10 13 17 16 15 16 15 17 24 29 25 28 26
17 20 15 17 16 11 4 6 8 9 5 4 5 5 5 3 2 3 2 2 4 3 1 3 3 2 1 3 2 3 3 5 2 1 2 2 6 8 8 7 6 10 13 13 13 15 14 20 20 24 28 29 31 31
5 7 19 15 17 9 6 14 17 6 4 4 7 4 3 3 5 4 6 3 5 4 2 2 2 2 1 2 2 1 1 3 1 1 1 3 7 8 9 8 9 10 14 15 17 20 23 24 24 26 31 30 30 31
12 8 18 14 10 14 8 6 6 5 4 4 4 4 3 2 3 3 4 4 5 3 2 2 3 2 2 3 2 2 1 1 1 2 3 6 8 9 10 11 10 12 14 19 24 24 27 30 31 30 20 27 30 30
8 14 14 13 5 5 6 9 4 5 6 4 4 3 4 2 4 3 5 5 4 2 2 3 3 5 3 3 1 1 2 4 4 5 6 8 10 11 11 12 15 19 20 23 25 25 27 26 24 21 28 28 30 28
12 15 12 10 7 5 4 5 6 4 5 2 3 3 2 2 4 5 5 6 4 5 3 3 5 3 2 2 3 4 4 4 6 7 8 11 15 14 18 20 20 21 22 22 22 20 22 23 22 21 21 22 23 22
4 13 13 15 6 4 5 3 5 4 3 2 2 6 3 3 6 4 7 6 5 3 5 4 3 3 2 3 4 6 4 5 8 9 8 8 15 18 17 18 17 23 24 24 24 25 24 23 21 21 22 22 22 20
7 12 15 7 7 10 4 2 4 3 4 3 3 2 2 3 10 10 7 6 6 4 3 4 5 5 8 8 12 12 7 8 7 7 8 8 12 17 18 18 20 19 18 16 17 19 20 19 19 20 23 23 24 25
9 10 6 9 4 4 4 5 4 2 3 3 3 2 3 3 4 6 5 7 4 4 4 4 6 5 9 10 8 16 18 22 20 18 17 17 8 7 9 13 16 14 16 16 17 18 18 19 22 25 27 25 28 28
8 8 7 12 5 5 3 1 3 2 2 2 2 3 3 3 3 4 4 4 3 6 9 6 10 15 12 17 20 22 18 19 12 14 16 17 18 17 18 17 16 16 15 17 18 20 21 24 27 28 28 28 28 26
8 6 6 4 6 3 2 4 3 3 3 2 2 3 3 2 2 3 3 2 4 8 8 10 11 5 7 13 9 10 14 16 19 18 15 16 14 15 17 18 18 18 17 19 21 22 24 26 26 27 26 26 25 25
6 8 5 7 5 5 5 4 5 4 4 4 3 4 3 3 3 3 2 4 5 7 6 9 10 7 6 6 9 15 20 15 14 8 16 16 17 18 19 19 19 17 19 25 21 24 24 24 24 25 25 26 25 23
8 7 6 7 5 5 5 4 5 5 4 4 5 3 3 3 4 4 2 4 3 4 6 5 4 5 7 10 5 8 12 15 19 18 17 15 13 12 12 8 9 11 11 18 22 23 22 21 21 21 20 19 20 20
7 5 4 5 3 3 4 4 4 4 5 5 3 4 3 5 3 2 2 5 3 8 11 13 12 11 8 11 15 17 18 19 20 17 17 19 17 15 16 14 11 10 11 13 16 19 21 20 20 19 20 18 16 13
3 5 5 6 5 4 4 4 4 4 3 5 3 5 3 3 2 2 2 6 11 13 16 17 18 18 16 16 17 18 20 22 24 25 26 25 22 20 17 16 15 12 12 11 12 14 15 16 17 17 16 15 13 10
3 2 4 6 5 5 5 3 3 3 4 1 3 2 2 2 4 2 5 10 11 14 12 12 14 17 18 16 15 14 11 8 10 7 9 4 6 13 11 11 12 11 11 13 11 10 11 10 10 11 11 10 10 9
3 1 4 4 5 5 3 1 2 3 2 2 3 5 3 4 11 12 11 11 12 11 11 11 10 12 10 10 12 16 13 9 6 8 4 4 7 11 11 11 11 11 11 12 15 15 13 12 12 11 9 9 7 6
2 3 4 4 4 1 2 1 7 8 4 4 4 4 2 2 7 17 14 10 11 12 13 13 13 11 11 11 9 9 10 13 11 10 14 15 12 10 9 9 8 9 9 9 10 11 11 10 8 8 7 6 5 4
4 3 4 4 0 2 2 2 2 2 2 3 3 2 3 4 3 7 12 4 10 12 10 11 12 10 9 10 11 14 14 12 11 11 9 9 9 8 7 6 6 5 4 4 6 7 8 8 8 6 4 5 4 3
3 3 4 4 3 1 2 3 2 2 3 2 2 1 1 3 2 1 7 8 7 10 12 11 10 10 10 10 11 11 10 10 9 8 8 7 6 5 4 3 3 4 4 5 5 5 5 5 5 5 4 5 5 5

GFSWCAN_925_spd_090.txt.gz
Wind_Speed
44 43 43 44 39 37 38 40 40 38 38 35 37 40 40 41 43 43 33 29 28 2 5 8 13 10 10 12 9 4 3 2 5 5 3 4 4 5 4 7 4 4 2 5 6 5 5 7 3 2 4 7 4 6
44 41 38 38 39 40 39 36 35 34 34 35 35 34 35 37 39 41 19 33 35 7 1 16 16 31 26 24 14 8 5 3 3 3 3 2 3 0 6 3 4 3 5 3 6 5 7 3 5 6 6 4 6 6
38 39 41 41 40 39 39 38 38 37 37 36 36 36 35 34 35 38 23 28 28 3 1 3 8 23 26 29 30 8 3 6 7 4 0 3 4 4 3 5 6 5 3 4 1 7 14 8 5 5 7 8 2 6
42 41 40 41 41 43 43 44 43 42 41 42 40 39 38 37 35 36 17 24 16 3 2 3 14 7 25 30 24 17 5 4 3 3 3 3 2 3 4 5 5 6 1 1 6 14 13 6 1 5 6 6 3 6
41 39 41 36 35 35 35 33 34 37 41 43 44 43 41 39 37 35 27 27 24 4 2 2 2 17 28 26 21 24 14 7 3 2 3 3 2 2 3 0 4 4 7 3 5 8 5 8 6 5 4 6 9 9
23 22 22 21 20 15 19 25 30 34 37 39 43 46 44 42 37 26 3 21 32 25 2 2 3 3 16 22 21 13 13 8 3 4 3 3 5 3 3 3 6 10 11 7 11 3 6 14 6 4 4 6 12 15
14 14 13 7 9 14 17 21 26 33 39 41 41 46 46 44 40 8 4 14 35 16 2 1 3 4 11 7 7 5 8 6 5 1 2 3 3 6 3 8 6 8 7 6 7 4 8 6 3 7 11 10 9 19
11 7 4 2 9 10 14 14 11 24 41 41 39 46 46 45 28 8 4 32 39 7 2 2 4 2 6 4 6 4 4 5 4 3 3 3 2 2 4 5 10 15 15 10 9 6 11 2 6 8 10 10 12 15
14 10 8 7 12 13 18 15 20 32 38 35 41 43 40 15 4 7 25 35 15 4 5 4 3 1 1 3 2 2 3 3 2 4 4 3 3 6 7 10 10 12 7 6 3 6 2 5 6 8 6 4 12 9
20 19 19 19 22 32 40 39 32 39 43 49 39 6 4 11 40 39 5 2 2 1 1 2 2 3 2 1 3 3 3 3 4 4 3 4 4 5 7 10 7 6 4 1 2 5 5 5 5 9 10 9 12 13
24 24 31 33 31 26 24 24 31 37 29 5 2 5 40 41 7 2 3 4 3 3 4 3 5 4 4 3 3 1 2 3 3 3 5 3 4 5 3 4 5 5 2 1 2 3 0 9 11 14 13 15 13 15
26 27 24 19 21 30 25 15 16 19 13 13 21 21 7 3 3 4 2 3 4 5 4 4 3 2 2 3 2 3 2 3 4 4 3 4 2 4 5 6 7 6 5 6 7 8 11 14 13 15 15 16 19 25
23 19 17 20 16 20 24 29 33 45 31 9 5 4 2 2 4 5 5 2 2 2 3 3 3 3 3 2 2 2 3 3 3 3 4 2 3 3 4 4 7 7 8 10 13 12 15 16 21 20 17 24 29 27
15 14 18 25 19 17 13 11 8 4 7 4 4 5 4 4 4 3 3 2 2 2 4 3 3 2 1 2 2 3 3 2 3 3 3 2 3 3 4 4 7 8 9 10 13 14 14 17 16 24 24 25 32 27
14 13 16 19 13 13 9 9 16 12 6 4 4 4 4 2 2 3 2 1 3 2 1 2 2 2 2 3 1 3 2 3 2 3 2 3 3 3 4 6 8 9 8 9 11 13 15 20 20 23 26 27 28 33
4 7 19 13 15 5 4 9 10 6 4 4 6 3 4 2 5 4 5 4 4 4 2 1 3 3 2 2 2 1 1 3 2 2 2 2 5 6 6 8 9 10 11 10 11 16 23 24 22 27 31 31 28 28
5 5 14 9 6 17 10 6 6 5 4 4 3 3 3 2 2 3 3 3 3 2 2 2 3 0 1 3 2 3 2 2 1 2 3 5 5 7 8 9 10 12 12 16 18 23 25 30 32 31 20 27 30 31
8 13 13 9 2 5 6 9 4 5 7 5 4 3 2 1 3 2 4 4 4 2 2 3 2 4 3 2 2 1 3 3 4 4 5 6 8 8 9 11 14 17 18 20 22 24 24 25 23 21 29 29 31 30
12 15 11 9 7 6 3 5 6 4 5 2 2 3 2 2 4 4 5 6 4 4 3 3 5 3 2 2 2 3 3 2 4 5 7 8 11 10 14 19 20 20 21 20 20 19 21 23 22 23 23 23 23 21
4 14 14 11 5 4 5 3 5 5 3 2 1 4 3 3 5 4 7 7 5 3 5 5 4 3 2 3 3 3 4 4 6 7 6 6 12 15 14 15 15 22 24 24 23 23 23 24 22 22 23 22 24 21
5 11 13 6 7 11 4 3 4 3 4 3 2 1 3 4 10 8 6 7 6 4 3 4 5 5 6 9 11 11 7 6 6 5 6 6 9 14 15 16 19 19 17 16 15 18 20 18 19 21 24 24 24 24
7 7 5 9 4 4 4 5 4 3 3 3 2 3 3 2 3 5 4 7 4 4 4 4 6 5 8 10 8 14 14 18 16 15 14 13 7 7 8 13 16 13 16 15 16 17 18 19 22 24 26 25 27 27
5 6 7 12 6 5 3 1 3 2 2 2 2 3 3 3 3 3 4 4 4 6 9 4 8 13 10 16 20 21 18 15 10 12 14 15 16 17 18 17 16 16 15 16 18 19 20 23 27 27 28 28 29 27
9 7 6 4 6 3 3 4 3 3 3 2 3 3 3 2 2 3 3 2 4 9 8 10 11 3 7 13 8 11 14 14 16 17 15 14 12 15 17 18 19 19 18 19 19 21 23 25 27 27 27 27 26 25
7 8 5 6 4 5 5 4 5 4 4 6 4 4 3 2 3 3 2 4 5 7 7 10 9 6 5 5 8 15 21 14 12 9 16 15 16 17 18 19 19 16 18 24 19 22 22 23 23 24 24 24 24 22
8 6 6 6 4 5 4 3 4 5 3 4 5 2 3 3 4 4 2 4 4 4 5 6 5 4 7 10 5 8 12 13 16 17 16 16 14 12 10 7 8 10 13 20 24 24 22 22 22 22 22 21 20 20
6 6 4 5 3 3 4 3 4 4 5 5 3 4 3 5 4 2 1 4 2 7 10 12 11 10 7 10 14 16 19 20 20 17 16 20 18 15 15 12 10 10 12 14 16 19 22 21 21 20 21 18 15 12
4 5 5 5 5 4 4 4 4 4 3 4 3 5 3 2 2 1 2 5 7 9 12 14 15 16 15 14 15 16 19 22 24 25 26 26 23 20 18 17 15 13 12 11 12 13 14 16 17 17 17 15 13 11
4 2 3 6 5 6 6 4 3 3 4 2 3 2 2 2 4 3 5 7 8 12 11 11 13 14 16 16 16 15 11 8 6 7 9 4 5 13 13 12 13 13 14 15 13 12 12 11 12 12 12 11 11 9
3 2 4 4 5 5 3 1 2 3 2 2 3 4 3 4 11 12 11 10 12 11 11 11 11 12 11 11 12 17 15 12 9 7 4 4 7 10 9 10 12 11 11 12 14 14 12 13 13 12 11 10 9 8
1 3 5 4 4 1 3 2 5 7 5 4 4 4 2 1 6 18 16 9 9 10 12 13 13 12 11 10 8 9 11 16 15 14 16 16 12 10 10 10 9 8 8 8 8 10 10 10 8 8 7 7 6 5
4 3 4 4 1 2 1 3 1 2 3 3 3 2 3 3 3 8 14 7 9 13 11 11 14 13 13 14 15 16 14 13 12 11 10 10 10 8 7 6 5 4 4 5 5 5 6 6 6 5 4 4 4 3
3 3 4 3 3 2 2 3 3 2 3 3 3 1 1 3 2 1 7 10 9 10 10 11 11 10 11 12 12 11 10 11 10 9 9 8 6 5 4 4 3 3 3 4 5 5 5 5 6 5 4 4 5 5

GFSWCAN_925_spd_093.txt.gz
Wind_Speed
41 42 42 42 41 40 39 38 39 40 40 39 40 42 44 47 44 43 34 31 32 7 6 12 17 14 9 10 8 2 4 5 3 5 5 4 5 6 5 8 4 4 6 5 8 6 10 2 2 3 5 13 14 12
43 43 42 41 40 37 33 32 32 32 32 33 36 37 36 41 46 44 21 33 36 8 2 20 20 26 24 20 12 9 5 4 2 3 3 2 4 2 7 5 4 5 7 3 6 5 9 13 8 10 10 8 13 5
42 41 40 37 35 36 36 37 37 37 36 34 33 32 32 33 38 43 25 23 28 8 1 4 8 24 28 29 30 8 7 8 7 5 2 2 4 2 5 7 5 5 4 5 2 2 10 15 17 10 11 13 7 5
41 43 44 44 43 42 40 39 39 38 35 34 33 33 33 32 31 36 29 28 25 2 4 3 14 9 31 33 24 20 8 10 9 4 3 3 2 3 3 5 6 7 2 2 6 9 7 5 7 12 17 10 5 5
47 48 46 41 39 38 35 35 37 39 39 37 34 33 32 31 31 31 21 30 30 6 3 3 1 16 17 23 21 17 12 9 5 4 3 5 3 3 3 2 4 4 11 5 7 9 8 12 9 13 11 8 7 4
35 28 23 19 22 23 23 26 27 32 33 34 38 40 34 33 29 22 3 26 31 10 2 2 2 3 13 19 15 11 10 5 5 3 2 3 4 3 3 3 6 10 13 13 15 13 7 9 10 3 1 3 2 12
19 16 14 10 8 11 15 18 22 26 30 34 34 38 41 37 34 7 2 14 35 15 2 2 2 3 6 5 5 4 5 5 4 2 3 4 4 5 3 8 10 11 10 9 12 6 9 5 7 3 5 8 7 11
11 7 4 6 11 13 16 21 24 29 33 33 35 38 38 38 27 10 1 33 34 9 2 2 2 1 6 3 3 4 4 5 4 3 3 3 2 3 5 4 12 17 18 15 16 9 12 8 2 5 7 7 4 11
10 10 12 15 17 18 11 12 18 29 36 36 37 38 36 16 3 12 14 33 11 4 4 3 4 4 1 3 3 3 4 5 2 5 4 5 4 8 6 9 14 13 8 7 3 4 5 8 7 6 6 9 7 10
15 20 20 22 23 13 18 15 15 32 46 43 31 5 4 10 42 32 8 2 2 2 2 3 2 3 3 2 3 3 4 4 5 8 5 4 8 13 8 12 11 6 5 3 4 5 2 4 6 6 7 10 9 9
16 20 26 21 21 29 36 41 43 45 40 10 3 4 37 42 10 3 3 3 3 3 3 4 5 4 2 4 3 3 2 4 4 4 7 5 5 3 2 3 6 6 5 4 2 4 6 5 9 11 12 13 11 14
15 19 23 23 22 20 19 18 16 17 12 16 24 21 9 3 3 4 3 4 4 5 5 5 4 3 3 1 2 2 3 1 3 5 3 3 1 4 4 4 5 4 5 6 5 5 7 10 10 13 14 15 15 20
18 20 25 32 31 42 46 44 44 50 32 10 6 5 2 3 5 5 7 3 3 3 4 3 3 4 2 2 2 3 4 3 3 3 3 1 2 5 6 4 5 5 5 7 8 10 14 15 18 19 16 22 21 23
17 19 23 27 18 17 10 9 10 6 7 5 4 6 4 4 3 2 2 2 2 2 3 3 3 2 2 3 2 3 2 3 3 3 1 3 7 5 5 5 4 5 6 7 9 11 14 15 15 22 23 24 26 26
15 11 10 20 10 14 13 11 13 11 6 5 5 5 4 2 2 3 2 1 3 3 1 3 2 2 1 3 1 2 2 2 1 0 3 5 6 5 4 5 6 6 6 8 8 11 12 17 18 22 23 26 29 30
6 7 10 13 8 8 8 15 16 8 4 4 7 3 4 2 4 4 4 3 4 4 2 1 2 2 2 1 2 2 1 1 2 2 4 4 4 4 4 6 8 8 9 9 11 16 18 19 20 25 29 30 30 32
5 4 7 4 12 13 7 7 6 5 4 4 4 3 3 2 1 2 3 4 4 3 2 2 4 2 1 3 3 3 2 2 2 2 2 3 4 5 7 9 9 11 12 15 18 20 22 25 28 26 19 26 30 31
9 9 7 2 6 5 6 9 4 5 7 5 3 4 2 2 4 2 5 5 4 2 2 3 3 5 4 3 2 2 2 3 4 4 4 5 7 7 9 10 13 17 18 19 21 23 25 24 22 18 26 29 31 29
13 13 8 8 5 6 3 5 6 5 4 2 2 2 2 2 4 5 6 6 4 4 3 3 5 3 3 3 2 1 2 2 2 4 6 8 11 10 14 16 17 18 19 18 19 19 20 22 22 20 21 22 23 21
7 13 16 14 5 4 5 3 5 5 3 2 1 4 3 3 5 5 8 7 6 3 6 5 4 4 4 4 4 3 3 4 5 6 6 6 11 14 13 14 14 20 21 23 23 24 24 23 21 21 21 22 23 21
5 12 13 7 8 11 4 3 4 3 4 3 2 1 3 4 8 7 6 7 6 4 4 4 5 5 7 8 9 8 5 6 5 4 5 6 8 13 14 16 17 17 15 15 15 18 20 18 19 21 23 23 23 23
6 8 6 9 4 4 4 5 4 4 3 3 3 3 3 3 3 5 4 7 4 3 4 3 6 5 6 9 8 13 11 14 14 13 13 12 7 7 8 12 15 12 14 15 17 18 18 18 20 23 26 24 24 24
5 7 7 11 6 5 3 2 3 2 3 3 3 3 3 3 3 3 4 4 3 5 9 5 7 10 8 13 17 19 17 14 10 11 12 14 16 15 17 17 14 15 14 15 17 19 20 19 22 25 25 23 24 23
8 6 6 4 6 3 3 4 3 3 3 2 3 3 3 2 2 4 4 3 3 9 8 10 11 4 6 11 8 11 14 12 14 17 14 14 12 15 17 17 19 19 18 18 18 19 19 19 22 23 23 21 19 18
7 9 5 6 5 5 5 4 5 4 4 5 3 4 3 2 3 3 3 5 5 7 7 10 9 6 6 5 7 12 18 14 12 9 16 13 15 16 17 18 19 15 15 21 18 19 17 19 21 20 19 19 20 19
8 6 5 6 4 5 4 3 4 5 4 4 4 2 2 3 4 4 3 5 4 6 6 7 5 5 7 11 6 8 12 12 14 16 14 15 13 12 11 9 9 10 11 18 23 20 18 18 19 19 19 19 20 20
6 5 4 5 3 3 4 4 4 4 4 4 2 3 3 5 4 2 2 5 3 7 9 10 10 10 8 10 13 15 19 20 19 16 14 19 18 15 14 11 10 10 12 14 17 20 21 20 20 20 20 18 16 14
4 5 5 5 5 5 4 4 4 4 3 4 2 5 3 2 2 2 3 5 6 7 10 12 14 14 14 14 14 14 17 19 21 22 25 26 23 21 18 17 15 13 13 12 13 15 17 19 21 20 18 17 14 12
4 3 3 6 5 5 6 4 3 3 4 1 3 2 3 2 4 4 5 6 8 10 10 9 11 13 15 16 17 15 13 9 5 8 10 5 7 14 14 14 14 15 15 15 13 13 13 14 15 15 14 13 11 10
3 2 4 4 5 6 3 2 3 3 2 2 3 4 3 4 10 14 14 13 12 11 11 12 12 13 10 10 11 18 17 14 10 6 5 5 6 9 11 12 13 12 12 13 15 15 13 13 13 12 11 10 9 8
2 3 5 5 4 1 2 3 3 5 4 4 4 3 2 1 4 18 18 11 10 10 12 13 16 14 12 11 8 8 12 17 18 17 17 16 13 12 11 11 10 9 9 10 11 12 13 12 10 10 9 7 6 4
4 4 4 4 1 2 2 3 2 3 4 3 3 2 3 3 3 7 15 10 12 15 13 13 15 13 14 15 16 16 14 12 13 12 11 11 10 9 9 8 7 6 6 8 8 8 8 7 7 6 4 3 3 3
3 3 4 4 3 1 2 3 4 2 3 3 3 1 1 2 2 1 5 10 10 9 10 11 12 12 11 12 12 12 11 11 10 10 9 8 8 7 6 6 6 6 5 5 6 5 5 4 4 3 2 3 3 4

GFSWCAN_925_spd_096.txt.gz
Wind_Speed
34 36 37 38 39 38 36 35 35 35 35 35 36 37 38 39 37 37 32 28 28 7 14 17 17 17 6 8 9 3 2 8 5 5 4 4 5 7 10 11 5 7 6 5 6 7 13 6 5 6 11 18 18 16
39 40 42 41 40 38 36 34 33 34 34 34 34 35 37 40 42 42 24 33 33 9 4 22 34 29 25 25 10 8 8 1 5 4 5 3 4 3 9 9 10 11 10 4 7 5 11 10 4 14 17 18 18 8
43 42 41 40 38 35 34 34 32 30 28 27 29 32 35 37 42 46 33 23 30 8 3 13 14 24 33 32 30 10 8 13 7 5 1 2 5 3 5 9 14 10 7 6 5 7 13 1 13 17 14 16 14 15
42 41 41 40 40 41 41 39 35 33 31 31 31 31 28 28 36 36 35 27 32 2 6 6 18 29 29 31 31 31 22 13 14 6 3 4 4 3 5 7 11 9 4 7 9 11 11 11 10 13 16 13 10 12
43 45 45 45 43 40 40 42 38 37 35 34 32 30 29 28 25 29 31 29 36 9 2 7 7 18 23 26 27 30 22 14 7 4 3 4 5 6 8 8 10 11 13 10 11 12 12 12 14 15 17 14 12 9
42 45 28 26 25 23 21 23 28 34 34 33 32 30 30 31 27 20 2 24 36 27 1 3 3 5 14 20 18 18 14 12 9 2 3 3 5 6 4 8 12 11 13 14 14 15 13 13 12 16 10 9 7 8
35 26 15 13 11 13 16 18 21 29 31 32 31 35 31 31 31 6 3 14 34 21 3 2 3 2 8 11 7 8 13 5 4 2 4 4 9 5 7 14 17 16 15 17 19 18 16 17 12 7 4 4 8 11
13 9 7 8 9 12 16 18 20 21 26 29 34 34 34 31 18 7 1 35 35 8 3 3 3 2 6 4 5 5 6 7 5 3 3 3 3 3 5 10 14 16 19 21 21 16 15 14 12 6 3 7 7 8
6 8 7 9 12 10 15 23 27 25 23 27 32 30 33 11 4 6 23 35 15 4 4 4 5 5 5 5 4 5 5 5 4 5 6 5 6 8 9 13 15 15 13 17 16 7 8 10 8 3 3 5 8 9
12 11 6 7 5 13 9 15 26 30 30 30 24 6 4 12 37 33 7 2 2 2 1 4 3 4 6 5 4 4 4 5 4 6 3 4 12 17 16 15 16 10 12 11 13 13 10 5 3 5 6 6 8 11
14 8 1 5 11 20 22 20 36 39 38 7 3 3 27 39 10 2 3 4 4 4 5 5 9 5 5 5 4 4 2 5 4 5 6 5 9 14 16 13 6 4 6 5 7 6 7 6 5 7 9 10 10 13
19 19 13 12 13 22 31 45 48 25 11 10 19 23 10 4 3 4 4 4 4 5 5 5 7 4 4 1 3 4 3 2 4 8 4 4 3 7 5 4 6 6 6 5 5 5 3 2 7 10 11 12 15 18
24 29 33 34 32 36 35 45 51 49 46 26 6 4 3 1 4 6 8 4 4 5 5 4 4 4 2 3 2 4 5 6 4 4 3 3 5 7 7 6 5 6 4 3 3 4 5 7 10 14 14 21 23 20
16 9 14 22 23 24 21 24 27 13 5 4 3 6 3 3 3 2 2 3 3 0 5 7 3 3 3 5 2 4 2 2 4 4 1 2 7 9 7 6 4 5 5 5 6 7 9 10 12 17 19 23 25 24
7 11 11 16 10 12 10 11 11 7 6 5 4 5 4 3 3 3 2 2 3 3 1 4 2 2 3 3 3 2 3 3 1 2 2 5 8 8 7 5 4 4 5 7 8 8 9 14 16 18 18 22 26 28
4 3 11 14 11 7 7 12 11 6 4 4 6 3 3 3 4 3 4 3 4 4 2 1 3 3 2 0 3 1 3 1 3 3 5 7 7 6 5 5 6 6 8 9 12 14 16 16 18 22 26 25 26 29
5 1 5 9 18 14 10 7 7 7 5 4 4 5 4 4 4 3 4 5 5 3 0 1 2 2 1 3 2 3 3 3 5 5 4 6 7 6 5 6 7 9 10 13 17 20 22 24 26 26 17 23 26 28
3 4 3 5 2 8 7 9 4 5 7 6 4 5 6 5 5 5 5 6 4 2 2 3 2 4 4 3 3 3 3 2 4 5 6 5 5 5 5 7 9 12 15 16 19 22 24 23 22 19 27 28 29 29
10 8 5 6 4 6 4 5 6 5 5 3 3 4 3 3 6 6 6 7 5 6 3 3 5 4 3 4 6 4 3 3 2 3 5 8 8 8 11 13 15 16 17 17 18 18 20 21 21 21 21 23 22 22
11 13 16 8 3 4 5 4 4 5 3 3 3 7 4 3 5 6 9 7 8 4 6 5 4 4 4 5 6 4 3 2 2 3 4 5 8 11 11 12 14 18 20 21 21 21 21 21 21 20 20 21 23 21
3 8 9 5 6 10 4 3 4 3 4 4 3 4 4 7 9 6 6 7 6 4 4 4 6 5 8 8 10 7 5 3 2 1 3 4 7 9 11 13 14 15 14 14 15 17 17 18 19 20 23 23 23 23
5 7 4 7 4 4 4 7 5 4 3 4 3 3 3 3 4 6 4 8 4 4 4 5 6 6 6 9 9 10 7 8 9 10 9 8 5 5 7 10 13 12 13 14 16 17 17 17 18 21 23 23 22 22
5 6 7 10 5 5 4 1 2 3 3 3 3 3 3 3 3 3 4 4 3 6 10 8 8 7 7 9 11 14 11 9 8 9 10 11 13 13 13 13 12 14 15 16 16 17 19 19 21 22 22 21 22 21
8 7 6 5 7 4 2 4 3 3 3 3 3 3 3 3 2 4 4 3 5 11 9 11 11 4 6 11 8 11 12 9 11 13 11 11 11 13 14 15 15 16 16 16 17 18 17 19 19 19 20 20 18 18
7 9 6 6 5 4 4 3 5 4 4 5 3 4 3 2 3 3 3 4 6 8 8 12 9 7 6 5 7 11 15 11 10 7 14 12 14 15 16 17 17 14 12 16 16 17 17 16 16 17 17 16 17 17
8 9 6 6 4 5 4 3 4 5 3 3 4 2 2 3 4 4 3 6 5 6 7 8 6 5 6 11 6 9 12 11 10 14 14 14 12 11 11 8 9 10 8 10 14 16 16 15 16 16 17 16 15 16
6 6 5 5 3 4 4 4 5 5 4 4 3 3 3 4 4 3 3 6 4 8 9 9 9 9 8 10 12 12 13 15 14 13 12 15 16 15 12 11 11 8 7 9 11 13 16 16 16 15 15 14 12 11
5 6 6 6 5 6 4 4 4 4 3 3 2 4 3 3 3 2 3 7 6 6 8 10 11 11 11 11 10 9 11 11 13 15 18 20 18 16 15 14 14 12 12 10 11 12 13 14 15 15 14 13 11 9
5 3 3 6 5 6 7 5 4 3 3 2 2 3 3 3 4 5 6 6 5 6 7 8 9 8 9 10 12 11 11 9 7 9 10 7 8 12 11 10 10 11 12 13 13 13 13 13 13 12 12 11 10 8
4 3 4 5 5 6 6 4 4 4 4 6 7 10 8 5 10 9 8 9 9 9 8 8 8 9 9 10 11 14 15 13 10 7 5 6 6 5 7 9 9 9 9 11 12 13 12 13 12 11 10 9 7 6
2 3 5 5 5 6 5 2 8 9 6 6 7 8 6 3 5 12 13 9 7 6 7 9 12 12 9 9 8 8 11 13 14 14 12 11 9 8 7 7 7 7 7 8 8 8 9 8 8 8 7 6 6 5
4 4 4 5 4 3 1 1 2 2 2 2 3 2 2 2 3 4 11 8 8 9 9 8 9 10 9 9 10 11 10 8 9 9 9 8 7 7 7 6 6 6 6 7 7 7 7 6 6 5 5 4 4 4
3 4 4 4 4 4 2 2 2 3 3 2 3 2 2 2 3 2 4 8 6 6 7 7 7 8 9 9 9 9 9 10 9 8 8 7 6 5 5 5 5 5 5 4 4 4 4 4 4 3 3 3 4 4

GFSWCAN_925_spd_099.txt.gz
Wind_Speed
32 33 31 32 32 32 31 34 36 35 35 34 33 32 33 32 32 32 27 22 22 6 13 16 18 13 6 5 10 2 2 7 5 5 4 6 4 5 7 11 3 7 9 7 10 5 9 4 8 5 8 12 15 19
32 34 35 35 35 36 37 37 35 33 34 34 34 34 34 34 34 34 25 26 25 9 5 11 31 31 25 15 10 7 9 10 1 4 4 3 5 3 5 4 9 5 8 4 7 4 2 9 5 4 8 13 19 18
37 37 38 38 39 39 37 36 35 33 32 32 34 35 35 35 36 38 28 23 21 9 9 16 19 24 20 32 28 12 12 15 9 6 3 2 4 5 3 6 10 9 7 4 6 6 6 9 4 3 7 17 20 19
39 39 40 42 41 38 37 36 33 31 30 30 30 32 35 35 36 38 35 29 26 2 5 10 18 27 42 27 25 29 26 24 15 8 2 3 4 5 6 6 8 6 6 8 9 8 10 4 4 6 15 16 17 11
41 42 43 42 41 40 40 40 38 38 35 30 30 28 28 32 36 36 35 29 38 13 3 6 15 26 20 29 34 29 25 17 10 4 3 3 6 8 9 11 11 11 11 9 7 9 8 11 11 10 13 15 10 10
42 42 42 41 42 39 32 27 29 36 39 37 34 29 29 27 27 23 6 25 39 35 3 5 3 5 19 22 24 18 13 13 8 2 3 4 12 7 5 8 13 11 9 10 10 13 11 13 12 14 15 10 8 6
34 33 31 27 21 17 17 19 19 25 29 36 33 32 31 28 27 4 2 8 42 30 3 3 4 4 11 14 8 8 18 8 5 2 4 9 11 5 5 13 17 18 18 17 17 16 18 15 11 10 10 5 5 8
24 19 12 11 11 12 12 11 16 22 27 31 31 31 29 30 22 12 6 18 39 9 3 3 3 5 12 5 5 5 4 5 4 2 3 4 6 6 6 11 14 15 15 15 15 13 13 11 7 10 3 4 3 6
4 12 13 11 13 16 17 15 16 19 22 32 30 29 20 8 4 10 11 38 17 5 4 3 5 4 7 7 4 4 5 4 4 5 6 6 8 7 7 12 15 16 15 15 12 13 14 12 9 8 1 4 4 6
12 12 13 11 10 11 12 15 23 23 24 28 29 6 4 9 30 34 6 2 2 3 3 4 5 4 5 4 4 4 3 4 4 6 4 6 11 19 21 18 16 14 17 11 14 14 13 13 4 3 2 0 3 7
11 11 11 14 14 15 16 20 32 32 33 7 3 2 17 39 9 2 4 4 4 4 4 6 10 6 4 5 4 4 1 2 3 5 6 4 6 5 9 14 9 11 7 7 9 11 13 10 10 4 3 6 9 10
21 21 16 12 4 8 24 38 46 24 11 12 18 23 8 4 2 5 5 5 5 6 6 5 8 5 4 3 3 3 3 3 5 1 3 3 4 9 10 11 9 9 9 8 8 9 10 8 9 1 7 9 12 17
23 23 30 32 37 40 44 37 33 39 48 36 6 3 4 2 6 6 8 4 5 4 4 5 5 3 3 3 2 3 5 5 3 3 3 4 5 7 8 8 9 8 9 8 7 7 7 8 10 7 11 15 18 20
17 23 27 29 35 40 44 46 41 23 5 3 3 5 0 4 1 3 3 4 4 4 7 6 5 4 3 4 3 4 3 3 4 4 1 5 8 8 8 8 8 8 8 7 6 6 8 8 10 15 14 15 18 19
18 12 18 20 25 30 32 22 9 8 5 4 3 4 3 3 5 3 3 3 4 2 4 5 3 3 3 3 4 3 4 5 1 3 3 6 7 8 8 8 7 6 4 4 5 6 8 12 13 15 16 18 21 23
4 11 15 13 10 12 11 10 7 5 4 4 7 4 1 6 6 5 5 5 4 2 1 1 3 4 4 3 6 3 4 2 4 3 5 7 8 7 7 7 6 5 4 5 9 11 13 15 16 20 23 23 24 26
4 4 9 12 12 12 7 5 6 5 4 4 4 5 5 6 6 4 4 4 5 2 2 2 3 3 3 3 2 4 4 4 5 5 5 7 7 6 4 4 3 4 6 10 12 13 15 19 22 22 15 22 26 28
5 4 3 7 5 6 5 6 4 5 7 6 5 6 8 6 5 5 5 6 4 2 2 3 2 3 3 2 3 3 4 3 3 4 6 6 6 6 6 6 8 9 11 13 14 16 17 19 18 18 24 26 28 28
7 7 9 7 6 6 3 5 5 5 5 4 4 4 4 5 6 6 6 6 5 6 3 3 5 3 3 4 6 7 6 5 4 4 4 7 9 8 9 9 11 11 12 12 12 13 15 16 18 19 20 20 20 21
16 17 13 9 7 4 4 3 4 5 3 3 4 6 4 4 4 6 8 7 7 4 6 5 4 5 4 5 6 7 5 4 3 2 3 4 7 7 8 8 10 13 14 16 17 16 18 18 17 18 18 19 21 20
6 6 8 7 6 10 4 3 4 5 4 4 5 6 4 8 8 6 6 6 5 4 4 4 6 5 8 9 10 10 7 8 5 4 3 3 5 7 9 9 9 10 10 11 13 14 16 16 18 19 20 21 22 22
4 8 4 7 4 4 4 7 5 4 3 5 4 3 3 4 5 6 3 7 4 4 4 5 5 6 5 8 10 12 10 6 5 5 5 4 3 4 6 9 10 9 11 13 14 15 16 17 19 21 23 23 23 22
6 6 6 7 4 4 4 2 2 3 3 3 3 3 3 3 3 2 4 3 3 6 8 8 10 4 6 7 9 13 13 9 6 7 8 9 10 11 11 12 12 13 13 15 15 16 18 19 19 20 20 19 19 20
9 6 6 5 6 4 3 3 3 3 3 3 3 3 3 3 2 3 4 3 5 9 8 10 11 5 5 9 7 11 15 9 9 11 9 9 10 13 14 15 15 15 15 15 15 16 17 18 17 17 17 17 16 16
6 8 5 7 5 3 4 3 4 3 4 4 3 4 3 2 3 3 3 3 6 7 7 11 9 6 6 6 8 12 15 12 11 7 14 12 12 14 16 17 17 14 11 14 15 16 15 15 15 15 14 14 15 15
8 10 6 6 4 4 4 3 4 4 3 3 4 3 2 3 3 4 3 5 5 6 7 8 7 5 7 11 7 10 12 10 10 12 15 17 13 11 11 9 10 13 10 10 12 14 15 15 15 15 15 14 14 15
6 6 5 5 3 4 5 5 5 5 4 4 3 2 2 3 4 3 3 6 4 8 9 10 10 10 8 11 12 12 13 14 14 12 12 15 17 17 15 12 12 10 8 9 10 12 14 15 14 14 14 13 11 11
5 6 6 5 6 7 4 4 4 4 3 3 2 4 3 3 3 3 4 7 6 6 8 9 10 10 11 10 10 9 10 8 10 12 16 19 19 18 16 15 13 12 11 10 10 10 11 12 13 13 12 11 10 9
5 4 4 8 6 6 7 5 4 4 4 2 2 3 3 3 4 6 6 7 6 7 8 9 9 8 9 10 12 12 12 14 7 8 10 7 10 15 12 11 11 11 11 12 12 11 11 11 11 11 10 10 9 8
4 3 4 6 5 6 6 5 6 5 6 8 7 10 9 8 10 9 9 9 9 9 9 9 9 10 10 10 11 14 16 16 15 11 6 7 9 7 8 8 8 8 8 9 10 11 12 12 12 11 10 9 7 7
3 3 5 6 5 7 7 8 11 12 9 9 8 8 7 4 7 11 12 9 8 8 9 10 12 12 11 11 11 9 11 14 14 14 11 9 8 7 7 7 6 6 6 6 6 6 7 6 6 6 6 5 5 5
4 4 4 5 5 5 1 2 3 5 4 5 5 3 3 3 3 3 9 8 8 9 10 9 9 10 10 9 10 10 10 8 9 9 9 7 7 6 6 5 5 5 5 5 6 6 5 5 4 4 4 4 3 2
10 8 8 6 4 4 3 2 2 3 2 2 2 2 3 3 3 3 4 8 7 7 7 7 7 7 8 8 8 8 8 8 8 8 7 7 6 5 5 5 4 4 4 4 4 4 4 4 3 3 2 2 2 2

GFSWCAN_925_spd_102.txt.gz
Wind_Speed
27 28 29 29 28 25 25 25 25 27 26 26 27 27 25 24 24 24 21 19 16 4 12 15 16 9 11 10 6 4 4 4 1 5 4 5 5 4 7 12 6 11 10 8 8 7 11 5 10 5 4 6 7 11
30 30 29 26 28 30 29 28 29 28 32 32 31 30 29 26 26 26 20 21 17 5 6 13 15 22 23 17 9 4 3 5 2 2 2 3 3 4 6 4 6 3 7 3 6 4 3 8 5 4 2 6 8 10
29 30 31 31 32 32 32 33 33 33 33 32 30 29 29 29 28 30 25 20 15 4 8 13 15 24 21 18 20 11 10 10 5 6 3 2 6 2 2 4 5 6 3 4 9 15 4 8 6 4 5 7 10 12
33 33 33 34 35 35 35 35 35 35 32 30 30 28 30 30 29 32 28 22 17 1 4 9 16 18 22 26 24 21 18 18 12 6 2 3 3 4 3 5 5 8 8 6 5 11 9 7 11 9 4 6 12 12
35 35 36 37 38 38 39 39 37 35 32 30 29 29 29 30 30 31 27 25 26 8 3 4 17 22 21 15 21 24 17 11 7 4 2 2 3 5 5 8 8 9 9 6 5 5 4 9 10 8 5 9 8 7
38 38 39 40 40 39 39 38 36 36 36 32 30 28 28 28 29 22 5 26 30 27 4 4 5 9 5 18 20 14 11 10 6 2 2 4 11 5 3 5 9 11 14 13 7 11 10 10 13 12 10 11 9 11
38 37 36 36 36 35 33 29 24 26 31 35 35 29 27 27 31 10 4 2 34 28 2 3 5 5 21 12 9 7 11 6 3 2 3 6 9 5 3 6 15 16 15 16 14 13 12 13 12 9 8 14 15 15
27 25 25 27 21 16 15 16 15 20 22 33 35 31 26 25 23 12 10 5 31 11 3 3 4 3 5 3 3 6 4 5 4 3 2 3 5 4 4 9 12 14 13 15 9 10 8 7 12 8 7 8 10 11
19 9 11 14 16 16 13 12 10 18 21 29 35 30 19 10 4 7 16 18 22 5 3 3 4 3 6 7 4 4 3 3 5 4 4 4 5 5 7 12 12 12 12 14 14 10 11 13 17 11 6 6 12 10
11 16 19 16 15 14 13 19 15 17 26 33 28 6 4 8 23 23 7 5 2 2 2 4 4 5 6 3 4 3 3 3 3 6 4 4 7 16 16 15 15 14 13 13 11 10 11 12 14 9 9 7 10 11
2 9 15 20 21 20 15 20 22 27 34 6 3 2 12 32 8 2 3 4 4 3 4 4 9 5 4 3 3 2 1 2 3 4 6 4 2 8 13 14 13 13 13 11 10 10 10 10 11 11 7 11 12 12
6 5 8 17 23 27 27 23 31 21 11 11 16 20 7 4 2 5 5 4 6 5 7 6 8 5 2 1 2 1 3 1 5 2 3 2 4 9 10 11 11 11 13 11 11 11 10 10 11 10 12 13 15 17
13 22 15 3 17 37 34 31 33 28 40 30 6 3 4 2 5 6 8 4 4 3 3 3 4 2 3 1 2 2 4 5 3 2 1 4 6 8 10 10 11 10 12 12 11 12 12 12 16 14 12 17 19 18
19 27 31 34 31 36 39 41 40 23 6 2 3 6 2 5 4 1 2 5 3 4 5 4 4 3 3 4 3 3 3 3 3 4 3 4 8 9 9 9 9 10 10 9 9 9 10 10 11 14 16 18 20 19
18 24 26 32 38 41 43 35 15 8 5 4 3 4 3 3 4 2 2 3 3 2 5 3 2 3 2 2 3 3 3 5 1 4 2 5 8 8 8 9 9 8 7 8 8 7 9 11 11 14 16 18 22 23
14 15 16 19 27 26 20 12 8 5 3 3 6 3 4 6 5 5 5 5 5 3 1 2 3 3 4 3 5 5 4 4 3 3 4 6 7 7 6 7 7 7 7 8 10 11 12 12 14 16 19 20 21 23
9 6 9 14 11 10 7 5 5 5 4 4 4 6 4 7 7 4 4 4 4 2 2 3 5 4 3 4 3 4 3 4 4 5 5 7 7 7 6 5 5 7 7 8 9 11 13 14 16 17 13 18 22 24
11 14 17 19 13 7 6 7 4 4 6 5 5 6 7 6 6 5 4 5 3 2 2 2 3 3 5 4 4 4 5 5 5 4 4 5 5 7 8 6 8 8 10 10 11 12 13 14 15 14 19 21 23 24
10 12 14 12 5 5 3 4 5 4 5 4 4 5 5 5 6 6 6 6 5 6 3 3 5 4 4 4 6 6 6 5 4 2 3 5 6 5 5 5 6 7 7 8 9 10 12 14 14 15 15 16 17 17
20 18 15 8 5 4 4 3 4 5 3 3 4 6 4 4 4 6 8 7 7 4 5 5 4 5 4 5 5 6 5 6 6 4 4 4 6 6 8 7 8 9 11 13 14 14 14 14 15 15 16 17 18 18
8 7 8 7 5 9 3 3 4 4 4 4 5 4 4 7 7 6 5 6 5 4 3 4 5 4 6 8 8 10 7 8 5 4 5 3 5 6 5 6 7 7 9 9 11 13 14 14 15 17 19 20 20 20
3 7 4 7 4 4 4 7 5 4 3 5 3 3 3 4 4 5 3 6 4 3 3 4 4 4 4 6 9 12 12 11 8 6 6 4 2 4 5 6 6 8 10 11 12 13 15 15 19 21 22 23 22 21
6 5 6 7 4 4 3 2 2 3 3 4 3 3 3 3 3 3 4 3 2 4 6 5 9 0 5 7 9 13 14 10 9 9 9 10 10 9 9 10 11 11 10 13 14 17 18 20 20 20 20 21 21 20
7 6 5 4 5 4 2 3 3 3 3 3 3 3 3 3 4 3 3 2 4 7 7 9 10 5 6 10 7 11 15 10 10 13 12 10 9 12 12 13 13 13 13 15 16 17 17 18 18 17 17 17 17 17
6 8 5 7 4 3 3 3 4 4 4 4 3 4 2 1 2 3 3 2 5 6 6 11 7 7 6 6 9 11 15 11 11 8 14 11 11 12 13 14 14 13 13 13 14 14 14 15 14 14 14 14 16 16
8 9 6 6 4 4 4 3 3 4 3 3 4 2 2 3 4 4 3 5 5 6 6 7 7 5 7 12 7 11 13 12 11 12 15 18 13 10 10 8 10 14 12 11 12 14 14 13 13 14 15 14 14 14
5 6 5 4 3 3 4 5 6 5 5 4 3 3 2 3 4 3 4 7 4 8 9 10 11 10 9 11 12 12 13 14 13 12 12 16 18 20 16 13 12 10 10 11 11 12 13 13 13 13 13 12 11 11
5 5 6 5 7 6 4 4 5 5 4 4 2 4 3 4 4 3 4 7 6 4 7 8 9 10 11 11 11 11 8 6 11 14 16 18 18 17 17 17 15 13 14 13 11 11 12 12 13 12 12 12 11 9
5 4 3 7 5 6 7 5 4 3 4 3 2 4 3 4 7 6 6 7 9 10 11 11 11 8 10 12 14 15 16 20 9 9 10 7 10 14 13 12 12 13 13 14 13 12 12 12 12 12 11 11 10 9
4 3 4 7 5 6 6 4 6 7 8 9 7 9 9 9 11 11 10 10 10 11 10 11 11 12 13 11 12 16 19 19 22 14 7 7 10 10 10 10 11 10 10 10 10 12 12 13 12 11 10 9 8 6
3 4 5 6 5 6 7 9 12 12 9 9 7 7 6 4 7 10 13 10 10 10 10 11 13 13 13 13 13 10 11 14 15 15 12 10 10 9 9 9 8 7 6 6 5 6 6 6 7 6 5 6 6 5
4 4 5 5 5 4 3 2 3 6 4 5 5 4 4 3 3 4 10 11 9 10 11 10 10 11 10 9 10 10 9 8 9 8 8 9 8 7 6 6 6 6 6 6 6 5 4 4 4 5 5 5 4 2
10 9 9 7 5 5 2 2 3 3 2 3 2 3 4 4 4 3 5 8 8 8 8 8 7 7 7 8 8 8 8 10 10 9 8 8 6 6 6 5 6 4 4 5 5 5 4 4 4 4 4 4 2 2

GFSWCAN_925_spd_105.txt.gz
Wind_Speed
24 26 26 25 25 25 24 23 22 19 19 19 19 19 19 17 16 18 17 19 9 3 5 8 6 6 3 1 1 4 5 4 1 3 3 4 2 3 5 9 5 8 8 5 4 2 8 7 4 1 3 3 3 2
26 26 27 28 29 27 26 24 22 24 24 24 23 22 22 22 19 17 12 17 17 6 4 14 13 15 12 11 4 0 2 2 2 3 2 2 2 2 4 3 4 2 1 3 7 6 2 3 2 1 4 1 2 4
28 30 29 27 28 29 29 28 27 26 25 25 25 24 23 23 22 20 19 14 11 2 5 8 9 21 24 25 13 3 2 3 3 3 2 3 3 2 3 3 7 6 2 2 4 5 6 7 9 3 2 2 4 6
30 31 30 30 31 31 31 31 30 29 28 27 26 26 25 23 23 22 21 22 16 1 3 3 6 9 13 15 22 17 13 10 3 2 2 3 3 2 3 5 4 4 1 4 4 0 1 6 4 6 7 8 5 6
34 33 33 34 34 34 34 34 32 31 30 29 28 26 25 23 23 22 24 22 22 5 2 4 10 14 11 15 18 21 16 4 2 2 2 3 3 3 3 3 3 3 3 4 2 5 4 12 13 10 10 3 6 9
33 35 36 36 37 36 36 35 35 34 33 32 29 25 24 23 22 17 3 21 26 21 2 3 4 4 14 12 15 9 7 4 3 2 2 3 4 3 2 3 3 5 7 8 3 5 13 8 6 8 11 12 12 12
35 36 38 39 39 38 37 35 34 34 33 31 28 28 24 24 27 9 3 1 25 23 2 3 3 4 18 13 1 2 6 3 3 2 4 2 3 2 2 4 11 14 14 14 12 10 5 4 4 6 12 14 16 16
37 39 37 35 32 30 30 30 29 28 25 27 30 28 25 24 23 18 10 3 25 8 3 3 4 3 5 3 3 3 3 2 3 2 2 3 2 3 4 10 10 12 10 8 8 8 5 8 12 9 12 12 12 11
37 31 28 25 24 21 21 19 17 16 19 22 31 29 19 13 4 8 25 3 15 4 4 3 2 2 2 2 1 1 3 2 4 4 3 4 3 4 7 6 7 11 9 8 9 9 9 9 9 10 12 10 11 10
30 27 21 18 15 17 17 15 14 13 20 35 30 5 3 10 21 24 9 5 2 2 2 3 3 3 3 2 1 1 2 2 2 5 3 3 2 10 12 12 11 14 14 15 12 12 10 11 9 10 8 7 9 9
14 17 20 22 21 18 20 21 16 28 41 10 3 2 11 35 7 2 3 3 3 3 4 4 6 3 2 3 2 2 2 0 1 3 5 3 2 6 11 11 10 12 14 13 12 11 11 10 8 6 8 10 9 12
6 9 16 18 21 25 22 26 39 19 12 12 16 19 9 4 2 4 5 4 4 5 4 3 4 5 1 3 2 2 2 0 4 1 2 1 3 9 11 12 12 11 12 12 13 11 11 12 10 9 9 10 13 17
8 3 12 17 28 33 29 40 33 30 35 26 5 2 4 2 5 5 6 3 3 3 3 2 3 3 2 2 2 1 2 4 0 1 2 3 5 8 10 10 11 11 13 11 11 12 11 11 13 10 10 12 15 18
21 13 5 22 35 39 37 40 39 28 7 3 4 6 3 5 4 3 1 3 1 3 3 4 2 3 2 2 2 3 4 1 2 1 2 3 6 6 7 7 8 10 9 8 10 10 10 10 11 13 13 13 14 16
32 37 30 38 39 40 43 44 24 9 4 2 2 3 2 1 3 1 1 2 4 2 3 3 3 3 1 3 3 2 3 4 2 2 2 3 4 4 6 7 6 6 6 7 8 6 8 10 11 13 14 16 19 19
26 34 37 43 42 37 34 26 12 4 3 3 6 2 2 4 3 3 4 3 4 3 2 3 3 3 2 3 3 4 2 3 2 2 2 2 5 5 4 4 4 5 8 7 9 10 12 12 11 13 18 18 19 21
13 9 26 28 25 25 20 8 6 5 3 4 3 4 2 5 5 3 3 3 3 2 2 2 4 4 1 2 3 3 3 1 2 2 1 2 3 4 4 4 7 7 8 9 10 11 11 13 14 15 13 17 21 23
11 19 20 21 20 17 8 5 4 4 5 4 4 4 5 5 4 5 4 5 3 2 2 2 2 5 4 4 3 3 3 3 2 2 2 3 3 6 6 3 8 8 8 9 11 12 14 13 13 13 18 20 22 23
20 21 17 11 4 5 3 4 4 4 4 2 3 3 3 2 6 6 6 6 4 5 3 3 5 3 3 3 2 3 4 3 3 3 2 3 5 4 3 6 8 7 6 7 8 10 12 12 13 13 14 16 16 17
20 15 12 13 7 4 4 3 4 4 3 2 3 3 3 3 2 5 8 6 5 3 5 4 3 2 2 2 3 3 3 4 4 4 3 1 5 9 8 7 10 12 12 13 13 13 12 14 16 17 17 17 18 16
13 11 10 9 5 10 3 2 3 3 4 3 3 2 3 4 4 4 4 5 5 4 3 2 2 1 4 6 8 9 6 9 3 2 2 1 4 7 9 10 7 9 8 8 10 12 14 13 15 17 20 19 20 20
5 7 4 6 4 4 3 5 4 3 3 4 2 2 3 2 2 3 2 5 3 2 2 2 2 2 1 4 7 11 13 11 11 10 11 11 4 2 5 8 9 8 9 10 12 12 14 16 20 21 22 22 22 21
7 5 5 6 4 4 3 1 2 3 3 3 2 3 3 2 2 1 3 3 2 4 7 3 7 3 7 9 10 15 17 12 9 8 10 11 14 14 11 11 11 10 10 12 15 15 15 18 20 20 21 20 21 20
6 5 4 4 4 3 2 3 3 3 3 3 3 3 3 3 4 3 3 2 3 7 6 9 10 3 7 9 6 11 15 13 12 14 13 11 9 11 14 13 14 15 15 16 15 16 16 17 19 19 18 17 16 16
7 8 4 5 4 4 4 3 3 3 4 3 3 3 2 2 2 3 2 2 4 4 5 10 8 7 5 4 8 11 19 11 9 8 15 11 12 13 15 15 15 15 15 16 14 14 15 16 15 15 16 15 16 17
7 7 5 6 3 4 3 3 3 4 3 3 3 1 2 3 4 4 2 2 2 3 4 6 5 4 5 9 4 7 11 11 12 12 15 19 13 9 8 6 8 13 12 13 15 14 15 16 16 17 18 18 18 18
5 4 3 4 2 2 3 4 4 4 5 4 2 3 2 4 3 3 2 4 1 6 8 10 11 9 7 10 9 12 13 15 16 14 15 18 18 17 16 10 9 11 10 11 13 15 17 17 18 17 17 15 14 15
3 3 4 4 5 6 4 4 4 4 3 4 2 5 3 3 3 2 2 7 10 8 7 8 11 12 13 13 13 15 8 13 19 20 22 21 19 17 14 13 13 13 14 12 12 12 12 14 15 15 14 14 13 12
4 1 3 6 5 5 5 4 3 2 2 2 2 3 3 3 5 4 9 12 12 15 14 13 13 12 14 15 16 19 21 16 9 7 8 5 8 15 12 13 14 12 12 14 13 12 12 13 14 14 13 13 12 10
2 2 4 5 5 5 5 3 1 2 4 6 5 9 6 4 14 17 15 12 13 14 14 15 14 16 13 10 12 18 20 21 22 14 5 5 8 12 13 13 11 9 7 9 12 13 11 12 12 13 13 11 10 9
3 3 4 4 4 2 3 9 13 12 6 5 4 5 3 3 5 14 19 11 15 14 14 15 16 16 15 14 13 10 10 12 12 14 13 12 10 10 9 9 10 8 7 6 7 6 8 9 8 9 8 9 8 6
3 3 4 4 3 3 2 2 3 3 3 2 1 2 2 3 3 4 12 11 13 14 13 11 11 13 11 10 10 8 7 6 8 6 6 6 7 7 7 7 7 7 7 7 7 8 7 6 8 7 5 6 6 7
8 7 4 4 3 4 1 2 2 2 3 2 2 2 2 2 3 3 4 8 10 10 10 9 9 9 9 10 7 10 11 12 12 9 8 6 5 4 4 5 6 7 7 6 6 6 7 7 7 6 6 4 3 3

GFSWCAN_925_spd_108.txt.gz
Wind_Speed
23 22 21 21 22 23 22 19 18 18 16 15 13 15 15 14 13 14 13 17 12 3 6 5 3 3 3 2 1 3 4 2 3 1 2 3 3 3 3 5 5 4 6 5 5 4 9 4 7 2 3 2 2 1
22 22 22 24 24 22 20 20 21 21 20 19 17 17 16 15 12 11 11 17 17 5 4 17 20 19 13 10 4 3 1 2 2 2 2 3 2 2 4 3 2 5 2 2 6 5 3 4 3 3 4 2 2 2
25 25 26 25 24 23 25 23 23 22 21 19 20 19 18 17 16 16 15 12 10 2 6 7 9 25 21 27 22 3 3 4 3 3 1 2 4 3 2 3 5 3 4 2 1 4 6 6 5 1 5 4 3 3
27 27 25 25 26 25 24 24 23 24 25 24 22 22 21 19 17 18 19 16 14 1 3 5 5 8 8 14 20 21 10 3 3 2 2 3 3 3 3 5 6 3 6 4 3 4 8 8 6 13 9 7 2 8
27 25 26 27 26 26 27 26 26 26 26 25 24 22 21 20 19 18 20 17 21 5 2 4 15 30 17 15 22 20 13 4 2 2 2 3 3 2 3 3 3 2 2 3 3 9 5 11 7 12 11 3 6 8
28 29 29 29 30 29 29 29 29 29 29 28 25 22 21 20 18 15 3 18 23 23 2 3 5 5 10 13 14 8 7 4 3 3 2 2 4 1 2 2 5 6 11 7 3 7 11 12 7 4 10 11 10 11
26 25 26 28 29 30 31 31 32 32 30 30 27 25 24 20 24 6 4 3 26 22 2 3 4 4 9 6 3 2 7 2 3 2 3 3 2 1 2 3 5 9 11 11 9 2 5 12 4 11 14 12 15 14
26 27 29 32 31 32 34 34 34 33 32 31 28 26 23 20 21 15 5 2 26 7 2 2 4 3 6 3 1 3 3 3 4 2 2 2 2 3 2 5 9 13 11 10 8 8 7 7 7 9 11 7 9 8
30 31 31 33 32 36 32 32 28 27 28 27 24 20 18 13 6 12 15 21 18 3 4 3 3 3 1 3 2 2 2 2 3 3 3 3 2 2 5 8 10 12 11 13 9 12 11 11 9 6 6 6 7 6
31 33 33 36 32 28 25 23 22 21 17 19 33 5 3 12 22 21 4 1 1 3 2 3 3 3 1 1 2 1 2 2 2 4 3 3 2 6 7 10 9 10 12 14 9 12 13 11 10 6 7 6 6 6
33 34 30 29 24 22 25 19 19 18 40 13 3 2 14 36 8 2 4 5 3 3 4 5 7 3 1 2 2 1 2 1 1 3 4 2 2 3 8 10 10 10 10 11 10 9 10 9 8 5 7 8 8 8
31 27 19 21 22 20 20 21 28 19 13 13 16 21 13 3 3 5 5 3 5 5 4 4 5 5 1 3 3 0 2 1 4 0 2 2 3 6 8 10 10 10 10 12 13 11 11 10 10 4 5 6 8 10
16 17 20 22 23 25 24 34 33 30 37 23 5 3 4 2 5 5 6 3 3 3 4 2 1 3 1 3 2 1 2 4 1 2 2 3 4 6 7 6 8 10 11 10 11 13 12 10 11 8 6 7 9 10
18 21 22 25 27 32 45 39 41 30 9 3 3 6 4 4 4 4 4 4 3 2 5 4 2 2 1 2 2 3 4 1 2 1 2 2 4 5 5 6 6 7 7 6 7 9 10 10 9 10 9 8 11 11
11 22 25 30 35 44 46 44 24 15 4 3 2 3 2 2 2 1 2 2 3 0 3 3 3 3 2 3 2 1 2 3 2 1 1 1 3 4 5 4 3 4 3 4 5 5 8 9 9 10 11 12 15 16
31 31 29 43 47 48 46 27 13 5 3 3 5 2 2 4 2 3 2 2 4 2 1 3 3 2 2 4 3 3 2 1 2 1 1 1 2 3 2 3 3 4 4 4 7 10 11 10 10 10 15 16 16 17
33 19 50 49 45 39 32 11 6 4 3 4 3 3 2 4 4 3 3 3 3 2 2 2 3 5 1 2 3 3 1 2 2 1 1 0 2 2 2 3 3 5 6 8 9 10 10 11 13 14 11 15 20 21
28 32 37 32 30 26 9 5 4 3 5 4 4 3 4 4 2 4 4 5 3 2 2 2 2 4 3 3 1 2 2 4 2 1 1 0 1 2 2 2 4 5 6 8 9 10 11 12 11 10 14 15 18 19
26 25 21 18 12 8 3 3 4 4 3 2 2 2 3 3 4 4 5 6 5 6 3 3 5 3 1 2 1 2 2 2 2 4 1 2 3 1 4 6 5 6 7 7 6 7 9 9 10 10 11 12 13 13
22 15 17 11 7 4 4 3 5 4 3 2 3 3 3 3 1 4 7 7 4 3 5 4 2 1 1 2 1 2 2 3 3 2 2 2 2 6 4 7 10 10 11 11 11 11 11 11 11 13 13 13 14 13
21 16 11 7 5 9 4 2 3 3 3 3 2 3 2 2 3 4 3 5 4 3 3 2 1 2 3 5 9 7 6 7 2 2 2 1 1 7 8 6 8 9 8 8 8 10 11 9 11 14 16 16 17 18
7 9 3 5 4 4 3 5 4 3 3 3 2 3 3 2 2 3 1 5 3 2 1 1 2 1 2 3 7 10 9 10 10 9 10 9 2 3 5 6 8 7 8 8 9 10 10 12 15 16 18 18 19 19
7 5 6 5 5 4 1 1 3 2 4 2 2 3 3 2 2 0 3 3 2 3 7 3 5 12 8 10 12 16 16 12 8 8 9 9 11 10 10 9 9 9 8 9 11 12 13 14 15 16 17 17 18 18
6 5 4 3 4 2 2 3 2 3 3 2 3 3 2 2 2 3 3 2 2 6 6 8 9 4 6 8 5 9 13 9 9 12 10 8 7 9 9 9 10 10 11 13 13 14 14 15 16 16 16 16 15 15
7 7 4 5 4 5 4 3 3 3 3 3 3 2 2 2 2 3 2 2 2 3 4 6 9 7 3 2 5 9 13 10 7 5 11 9 9 11 12 12 11 11 13 14 12 13 13 13 13 13 13 13 13 15
7 4 4 3 3 4 3 3 3 2 3 3 2 1 3 3 4 3 2 1 1 2 3 4 3 2 4 7 3 6 9 7 9 9 12 11 9 8 6 5 6 9 8 9 12 12 12 11 12 13 13 14 14 16
5 3 3 4 2 3 4 4 4 4 4 2 1 3 3 4 2 2 1 4 1 4 7 8 9 8 6 9 11 11 13 14 14 12 12 14 14 13 12 9 7 7 6 8 10 13 15 15 15 15 14 13 14 14
3 3 4 5 5 4 4 3 3 3 1 3 3 4 3 2 2 1 1 8 11 9 11 13 11 11 11 11 9 8 11 15 16 16 17 18 17 13 11 11 11 8 9 7 7 9 11 12 13 14 13 13 12 10
3 1 4 6 5 5 5 3 2 2 3 1 3 2 2 3 4 4 8 11 10 15 16 13 10 12 13 14 15 12 7 6 7 6 6 4 8 14 11 11 9 9 9 9 8 7 8 10 11 11 11 11 10 9
1 2 4 4 4 4 3 2 1 2 3 4 4 7 4 4 14 17 14 14 17 17 15 14 12 12 11 12 12 16 18 16 12 10 4 3 5 9 9 8 9 6 7 8 10 11 11 10 11 11 11 11 10 10
3 3 4 4 4 1 2 5 13 13 4 5 5 4 3 2 7 17 14 13 12 10 11 15 15 13 11 10 8 6 8 9 9 9 8 6 5 6 7 8 7 5 5 6 7 8 9 9 10 11 9 8 8 9
4 3 4 4 3 1 1 2 2 3 0 2 1 2 2 3 2 5 6 7 10 12 9 9 12 9 10 11 11 10 8 7 5 4 4 4 4 5 4 3 4 5 4 5 5 6 8 7 7 8 8 7 7 7
6 7 4 4 3 1 3 3 3 2 3 2 1 2 1 3 3 3 4 4 6 7 8 8 7 6 6 6 8 9 9 10 8 7 6 4 3 3 3 3 3 4 4 5 5 6 8 8 7 7 7 5 4 5